Home > Weather > Winder > Past weeks

Flag for USA Weather for the Past 2 Weeks in Winder, Georgia, USA

Now
50 °F

Clear.


Feels Like: 46 °F
Forecast: 51 / 62 °F
Wind: 10 mph from Northwest

Location: Winder-Barrow Airport

Current Time: May 5, 2016 at 5:40:42 AM

Latest Report: May 5, 2016 at 5:15 AM


Visibility: 10 mi

Pressure: 29.72 "Hg

Humidity: 82%

Dew Point: 45 °F

Location of WinderLocation

Historic Weather in Winder — Graph

°F

Winder Temperature Yesterday

Maximum temperature yesterday: 72 °F (at 2:35 PM)
Minimum temperature yesterday: 54 °F (at 5:55 AM)
Average temperature yesterday: 63 °F

High & Low Weather Summary for the Past Weeks

 TemperatureHumidityPressure
High90 °F (Apr 29, 4:55 PM)94% (Apr 22, 8:35 AM)30.18 "Hg (Apr 22, 8:35 AM)
Low52 °F (Apr 21, 6:55 AM)16% (Apr 20, 6:15 PM)29.71 "Hg (May 4, 8:15 PM)
Average70 °F63%30.00 "Hg
* Reported Apr 20 4:15 AM — May 5 4:15 AM, Winder, Weather by CustomWeather, © 2016

Note: Actual official high and low records may vary slightly from our data, if they occured in-between our weather recording intervals... More about our weather records

Advertising

Winder Weather History for the Previous 24 Hours

Scroll right to see more
 ConditionsComfort  
Time TempWeatherWind HumidityBarometerVisibility
4:15 AM
Thu, May 5
52 °FClear.12 mph82%29.72 "Hg10 mi
3:55 AM52 °FClear.12 mph82%29.73 "Hg10 mi
3:35 AM52 °FClear.9 mph82%29.73 "Hg10 mi
3:15 AM52 °FClear.8 mph82%29.73 "Hg10 mi
2:55 AM52 °FClear.9 mph82%29.73 "Hg10 mi
2:35 AM54 °FClear.8 mph82%29.74 "Hg10 mi
2:15 AM54 °FClear.12 mph82%29.76 "Hg10 mi
1:55 AM54 °FPassing clouds.9 mph88%29.76 "Hg10 mi
1:35 AM55 °FOvercast.9 mph82%29.76 "Hg10 mi
1:15 AM55 °FPartly cloudy.10 mph82%29.76 "Hg10 mi
12:55 AM55 °FPassing clouds.8 mph82%29.76 "Hg10 mi
12:35 AM55 °FPassing clouds.8 mph82%29.76 "Hg10 mi
12:15 AM55 °FClear.7 mph88%29.75 "Hg10 mi
11:55 PM
Wed, May 4
55 °FPassing clouds.9 mph88%29.78 "Hg10 mi
11:35 PM55 °FClear.3 mph88%29.78 "Hg10 mi
11:15 PM55 °FPassing clouds.5 mph88%29.77 "Hg10 mi
10:55 PM55 °FMostly cloudy.3 mph88%29.77 "Hg10 mi
10:15 PM57 °FLight rain. Mostly cloudy.8 mph77%29.78 "Hg10 mi
9:55 PM61 °FLight rain. Overcast.24 mph63%29.78 "Hg10 mi
9:15 PM64 °FMostly cloudy.No wind46%29.73 "Hg10 mi
8:55 PM64 °FOvercast.No wind49%29.72 "Hg10 mi
8:35 PM64 °FPartly sunny.No wind46%29.72 "Hg10 mi
8:15 PM64 °FSunny.No wind46%29.71 "Hg10 mi
7:55 PM66 °FSunny.No wind40%29.72 "Hg10 mi
7:35 PM68 °FSunny.No wind38%29.72 "Hg10 mi
7:15 PM70 °FSunny.6 mph33%29.72 "Hg10 mi
6:55 PM70 °FSunny.8 mph33%29.72 "Hg10 mi
6:15 PM70 °FThundershowers. Scattered clouds.7 mph33%29.72 "Hg10 mi
5:55 PM70 °FScattered clouds.12 mph33%29.72 "Hg10 mi
5:35 PM72 °FPartly sunny.12 mph31%29.72 "Hg10 mi
5:15 PM70 °FPartly sunny.10 mph31%29.73 "Hg10 mi
4:55 PM70 °FPartly sunny.10 mph33%29.73 "Hg10 mi
4:35 PM70 °FScattered clouds.15 mph31%29.74 "Hg10 mi
4:15 PM72 °FScattered clouds.14 mph31%29.74 "Hg10 mi
3:55 PM72 °FScattered clouds.14 mph29%29.74 "Hg10 mi
3:35 PM70 °FPartly sunny.6 mph31%29.75 "Hg10 mi
3:15 PM70 °FPartly sunny.14 mph31%29.77 "Hg10 mi
2:55 PM70 °FScattered clouds.7 mph31%29.78 "Hg10 mi
2:35 PM72 °FPartly sunny.14 mph31%29.78 "Hg10 mi
2:15 PM68 °FPartly sunny.7 mph35%29.79 "Hg10 mi
1:55 PM70 °FScattered clouds.10 mph33%29.80 "Hg10 mi
1:35 PM70 °FScattered clouds.9 mph35%29.81 "Hg10 mi
1:15 PM68 °FPartly sunny.10 mph35%29.81 "Hg10 mi
12:55 PM68 °FPartly sunny.15 mph35%29.82 "Hg10 mi
12:35 PM68 °FPartly sunny.14 mph38%29.83 "Hg10 mi
12:15 PM70 °FScattered clouds.14 mph35%29.83 "Hg10 mi
11:55 AM68 °FScattered clouds.6 mph38%29.83 "Hg10 mi
11:15 AM66 °FScattered clouds.9 mph43%29.83 "Hg10 mi
10:55 AM64 °FSunny.13 mph46%29.83 "Hg10 mi
10:35 AM64 °FScattered clouds.10 mph46%29.83 "Hg10 mi
10:15 AM64 °FSunny.9 mph46%29.83 "Hg10 mi
9:55 AM63 °FSunny.8 mph52%29.83 "Hg10 mi
9:35 AM61 °FSunny.8 mph59%29.84 "Hg10 mi
9:15 AM61 °FSunny.12 mph59%29.84 "Hg10 mi
8:55 AM61 °FSunny.15 mph59%29.84 "Hg10 mi
8:15 AM59 °FSunny.7 mph72%29.84 "Hg10 mi
7:55 AM55 °FSunny.6 mph82%29.84 "Hg10 mi
7:35 AM55 °FClear.7 mph82%29.84 "Hg10 mi
7:15 AM54 °FClear.8 mph88%29.84 "Hg10 mi
6:55 AM54 °FClear.7 mph88%29.84 "Hg10 mi
6:35 AM54 °FClear.5 mph88%29.84 "Hg10 mi
6:15 AM54 °FClear.6 mph88%29.84 "Hg10 mi
5:55 AM54 °FClear.6 mph88%29.84 "Hg10 mi
5:15 AM55 °FClear.6 mph82%29.83 "Hg10 mi
Weather by CustomWeather, © 2016

See weather overviewHow to use our weather pages